Current weather by "City, St" or "zip code"  
 

Current Conditions: New Orleans, New Orleans Lakefront Airport, LA

Overcast


63.0 F

Last Updated on Jan 22 2019, 10:53 am CST
Humidity: 68%
Wind Speed: E 12.7 mph
Barometer 30.19 in
Dewpoint: 52.0 F
Visibility: 10.00 mi
Precip: --
Heat Index: NA
Wind Chill: 62 F
Current conditions at:

New Orleans, New Orleans Lakefront Airport, LA (KNEW)

Lat: 30.04 Lon: 90.028

Local Radar Image active severe weather and emergency alerts image image weather storm and storm spotter reports image weather observation monitoring service image
Local
Radar
Active
Alerts
Storm Reports Obs
Monitoring

iAlert Weather and Emergency Alert Notification Services:


ialert severe weather and emergency alerts by text message and email ialert daily weather forecast by email and text message service ialert real-time weather-observation monitoring and alert notification service ialert storm report monitoring alert notification

Observation History for New Orleans, New Orleans Lakefront Airport, LA


Time Wind
(mph)
Vis
(mi)
Weather Precip (in) Temperature (F) Relative
Humidity
Wind
Chill
(°F)
Heat
Index
(°F)
Pressure
Air Dwpt altimeter
(in)
sea level
(mb)
10:53 am CST E 12.7 10.00 Overcast -- 63.0 52.0 68% 62 NA 30.19 1021.7
9:53 am CST E 13.8 10.00 Overcast -- 60.0 52.0 75% 58 NA 30.21 1022.2
8:53 am CST SE 13.8 10.00 Overcast -- 60.0 52.0 75% 58 NA 30.21 1022.3
7:53 am CST E 13.8 10.00 Overcast -- 58.0 50.0 75% 55 NA 30.20 1021.9
6:53 am CST SE 9.2 10.00 Overcast -- 58.0 50.0 75% 56 NA 30.19 1021.6
5:53 am CST SE 10.4 10.00 Overcast -- 58.0 48.9 72% 56 NA 30.19 1021.5
4:53 am CST SE 9.2 10.00 Overcast -- 58.0 48.9 72% 56 NA 30.18 1021.4
3:53 am CST SE 10.4 10.00 Overcast -- 57.0 48.0 72% 55 NA 30.18 1021.2
2:53 am CST SE 10.4 10.00 Overcast -- 56.0 46.9 72% 53 NA 30.20 1021.9
1:53 am CST SE 9.2 10.00 Overcast -- 54.0 46.9 77% 51 NA 30.21 1022.4
12:53 am CST SE 11.5 10.00 Overcast -- 54.0 46.0 75% 51 NA 30.23 1022.9
11:53 pm CST E 12.7 10.00 Overcast -- 53.0 45.0 74% 49 NA 30.25 1023.7
10:53 pm CST E 10.4 10.00 Mostly Cloudy -- 52.0 45.0 77% 48 NA 30.27 1024.4
9:53 pm CST E 11.5 10.00 Fair -- 51.0 44.1 77% 47 NA 30.27 1024.4
8:53 pm CST E 13.8 10.00 Fair -- 50.0 43.0 77% 45 NA 30.29 1025.0
7:53 pm CST E 13.8 10.00 Fair -- 49.0 41.0 74% 44 NA 30.29 1024.9
6:53 pm CST E 11.5 10.00 Fair -- 49.0 39.9 71% 44 NA 30.30 1025.2
5:53 pm CST E 10.4 10.00 Fair -- 49.0 39.0 69% 45 NA 30.31 1025.8
4:53 pm CST E 13.8 10.00 Fair -- 50.0 37.9 63% 45 NA 30.31 1025.7
3:53 pm CST E 15.0 10.00 Fair -- 50.0 39.0 66% 45 NA 30.32 1025.9
2:53 pm CST E 16.1 10.00 Fair -- 51.0 39.0 64% 46 NA 30.33 1026.3
1:53 pm CST E 13.8 10.00 Fair -- 51.0 37.9 61% 46 NA 30.34 1026.8
12:53 pm CST E 11.5 10.00 Fair -- 51.0 37.0 59% 47 NA 30.37 1027.8
11:53 am CST E 12.7 10.00 Fair -- 50.0 36.0 59% 45 NA 30.40 1028.7

Regional Weather Observation


New Orleans, New Orleans International Airport, LA (KMSY)

Mostly Cloudy
68.0 F

Hammond, Hammond Municipal Airport, LA (KHDC)

Overcast
66.0 F

New Orleans Naval Air Station - Alvin Callender Field, LA (KNBG)

Overcast
66.0 F

Bogalusa, George R Carr Memorial Air Field, LA (KBXA)

Overcast
59.0 F

Bay St. Louis, Stennis International Airport, MS (KHSA)

Overcast
57.0 F

Houma-Terrebonne Airport, LA (KHUM)

Mostly Cloudy and Breezy
70.0 F

Advertise Here


Advertise Here